Regional Weather Roundup
Issued by NWS

Home | Current Version | Previous Version | Text Only | Print | Product List | Glossary Off
Versions: 1 2 3 4 5 6 7 8 9 10 11 12 13 14 15 16 17 18 19 20 21 22 23 24 25 26 27 28 29 30 31 32 33 34 35 36 37 38 39 40 41 42 43 44 45 46 47 48 49 50

810
ASUS43 KMPX 031501
RWRMN
WEATHER ROUNDUP FOR MINNESOTA
NATIONAL WEATHER SERVICE TWIN CITIES/CHANHASSEN MN
900 AM CST SAT DEC 03 2016


NOTE: "FAIR" INDICATES FEW OR NO CLOUDS BELOW 12,000 FEET WITH NO
SIGNIFICANT WEATHER AND/OR OBSTRUCTIONS TO VISIBILITY. N/A MEANS
CURRENT SKY AND/OR WEATHER CONDITIONS ARE NOT AVAILABLE.

MNZ060>063-068>070-031600-
   Twin Cities Metro

CITY           SKY/WX    TMP DP  RH WIND       PRES   REMARKS
TWIN CITIES    CLOUDY    29  20  69 W5        30.30S WCI  24
ST PAUL        CLOUDY    30  22  72 W6        30.31F WCI  24
CRYSTAL        CLOUDY    29  19  66 W5        30.29S WCI  24
BLAINE         CLOUDY    30  23  74 W5        30.29S WCI  25
LAKEVILLE      CLOUDY    27  19  74 SW5       30.29F WCI  21
EDEN PRAIRIE   CLOUDY    29  20  69 SW7       30.29S WCI  22
SOUTH ST PAUL  CLOUDY    30  21  69 W6        30.30S WCI  24
LAKE ELMO      CLOUDY    30  27  86 W6        30.30F WCI  24
$$
MNZ001>005-007-008-013>017-022>024-027-028-031600-
   Northwest Minnesota

CITY           SKY/WX    TMP DP  RH WIND       PRES   REMARKS
BEMIDJI        CLOUDY    23  18  81 S10       30.20F WCI  12
HALLOCK        CLOUDY    27  23  86 S18G24    30.14F WCI  13
ROSEAU         CLOUDY    27  21  80 S10       30.17F WCI  17
WARROAD        CLOUDY    27  21  80 S7        30.18F WCI  19
THIEF RVR FALL   N/A     24  19  81 S15       30.19  WCI  11
CROOKSTON      CLOUDY    27  19  74 S15       30.20S WCI  15
FOSSTON        CLOUDY    21  18  86 S16       30.20S WCI   7
DETROIT LAKES  MOCLDY    25  21  86 S10       30.21F WCI  15
MOORHEAD       CLOUDY    27  19  74 S14       30.21F WCI  15
PARK RAPIDS    CLOUDY    24  16  71 S8        30.21F WCI  15
$$
MNZ006-009>011-018-025>026-031600-
   North Central Minnesota

CITY           SKY/WX    TMP DP  RH WIND       PRES   REMARKS
BAUDETTE       CLOUDY    26  21  81 S5        30.19F WCI  20
FLAG ISLAND    CLOUDY    28  21  74 S10G18    30.17S WCI  19
INTL FALLS     CLOUDY    24  20  84 SE3       30.22F
WASKISH        CLOUDY    25  19  80 S3        30.21F
BIG FORK       CLOUDY    27  19  74 S6        30.22S WCI  20
LONGVILLE      CLOUDY    23  18  80 S7        30.24S WCI  15
GRAND RAPIDS   CLOUDY    25  21  85 S5        30.25S WCI  19
CRANE LAKE     CLOUDY    21  19  93 S3        30.26S
ORR            CLOUDY    23  19  86 CALM      30.21S
COOK           CLOUDY    25  21  86 CALM      30.23F
$$
MNZ012-019>021-037-031600-
   Northeast Minnesota

CITY           SKY/WX    TMP DP  RH WIND       PRES   REMARKS
DULUTH         FLURRIES  27  23  85 NW5       30.24S WCI  22
ELY            CLOUDY    23  21  93 CALM      30.23F FOG
HIBBING        CLOUDY    24  19  81 CALM      30.23F
EVELETH        MIX PCPN  25  20  83 W3        30.25S
DULUTH HARBOR  FLURRIES  30  27  86 W3        30.29S
TWO HARBORS    CLOUDY    30  25  80 CALM      30.24S
SILVER BAY     CLOUDY    28  25  86 CALM      30.24R
GRAND MARAIS     N/A     32  24  72 VRB3      30.27R
G MARAIS ARPRT CLOUDY    25  19  80 CALM      30.21S
$$
MNZ029>031-032-039>041-046>048-054>057-064-031600-
   West Central Minnesota

CITY           SKY/WX    TMP DP  RH WIND       PRES   REMARKS
FERGUS FALLS   CLOUDY    25  19  80 S12       30.26F WCI  14
MORRIS         MOCLDY    27  21  80 SE9       30.22F WCI  17
ALEXANDRIA     CLOUDY    24  18  77 SW12      30.24F WCI  13
ELBOW LAKE     CLOUDY    25  19  80 S9        30.22F WCI  15
WADENA         CLOUDY    23  19  86 S6        30.22F WCI  16
GLENWOOD       CLOUDY    25  19  80 S8        30.24F WCI  16
APPLETON       PTCLDY    27  21  80 SE6       30.24S WCI  20
BENSON         CLEAR     27  18  69 S5        30.24F WCI  21
ORTONVILLE     CLOUDY    27  21  80 CALM      30.21F
MADISON        CLOUDY    28  25  86 SE9       30.23S WCI  20
WILLMAR        FAIR      27  21  80 CALM      30.27F
$$
MNZ033>034-036-042>043-049>051-058-059-031600-
   Central Minnesota

CITY           SKY/WX    TMP DP  RH WIND       PRES   REMARKS
ST CLOUD       CLOUDY    27  20  75 SW7       30.28S WCI  19
PAYNESVILLE    CLOUDY    26  19  74 S5        30.27F WCI  20
AITKIN         CLOUDY    28  19  69 CALM      30.23F
PINE RIVER     CLOUDY    23  18  80 SW6       30.27S WCI  16
BRAINERD       CLOUDY    25  18  74 S8        30.25F WCI  16
STAPLES        CLOUDY    23  18  80 S5        30.24S WCI  17
LONG PRAIRIE   CLOUDY    25  19  80 SE7       30.25F WCI  17
LITTLE FALLS   CLOUDY    27  19  74 SW7       30.27R WCI  19
LITCHFIELD     CLOUDY    28  21  74 CALM      30.28F
BUFFALO        CLOUDY    28  20  73 SW7       30.30S WCI  20
MAPLE LAKE     CLOUDY    28  22  77 SW5       30.30S WCI  23
$$
MNZ037-044-045-052-053-031600-
   East Central Minnesota

CITY           SKY/WX    TMP DP  RH WIND       PRES   REMARKS
PRINCETON      CLOUDY    28  25  86 CALM      30.28S
MORA           CLOUDY    28  25  86 S3        30.29S
CAMBRIDGE      FLURRIES  30  21  69 SW3       30.27S
RUSH CITY      CLOUDY    28  25  86 S3        30.28F
MOOSE LAKE     CLOUDY    28  23  80 CALM      30.24F
HINCKLEY       CLOUDY    30  28  93 SW3       30.28S
CLOQUET        CLOUDY    27  23  86 CALM      30.25S
MCGREGOR       CLOUDY    28  23  80 CALM      30.25F
$$
MNZ071>073-080-081-089-090-097-098-031600-
   Southwest Minnesota

CITY           SKY/WX    TMP DP  RH WIND       PRES   REMARKS
MONTEVIDEO     CLOUDY    27  23  86 S7        30.26F WCI  19
GRANITE FALLS  CLOUDY    29  22  76 E6        30.26F WCI  23
CANBY          PTCLDY    28  23  81 CALM      30.23F
MARSHALL       MOSUNNY   27  20  75 SE8       30.23F WCI  19
REDWOOD FALLS  CLOUDY    28  19  69 E5        30.26F WCI  23
OLIVIA         MOSUNNY   30  23  74 CALM      30.26F
PIPESTONE      SUNNY     27  25  93 SE8       30.19F WCI  18
WINDOM         PTSUNNY   28  21  74 CALM      30.24F
WORTHINGTON    SUNNY     28  25  88 SE9       30.23F WCI  19
JACKSON        MOSUNNY   28  21  74 SE8       30.26S WCI  20
TRACY          MOSUNNY   28  22  80 SE7       30.24F WCI  20
SLAYTON        MOSUNNY   25  22  89 SE7       30.22F WCI  17
$$
MNZ065>067-074>077-082>085-091>093-031600-
   South Central Minnesota

CITY           SKY/WX    TMP DP  RH WIND       PRES   REMARKS
MANKATO        CLOUDY    28  20  71 SW6       30.30S WCI  22
NEW ULM        PTSUNNY   27  19  74 CALM      30.28F
ST JAMES       CLOUDY    28  19  69 CALM      30.29F
FAIRMONT       CLOUDY    29  21  72 E5        30.28F WCI  24
GLENCOE        CLOUDY    29  23  77 SW3       30.29S
FARIBAULT      CLOUDY    28  21  74 SW3       30.30S
OWATONNA       CLOUDY    28  23  80 SW3       30.29S
WASECA         CLOUDY    30  25  80 SW6       30.31S WCI  24
ALBERT LEA     CLOUDY    30  25  80 NW6       30.29S WCI  24
$$
MNZ078>079-086>088-094>096-031600-
   Southeast Minnesota

CITY           SKY/WX    TMP DP  RH WIND       PRES   REMARKS
ROCHESTER      CLOUDY    29  22  75 W3        30.28S
RED WING       CLOUDY    30  21  69 CALM      30.30S
STANTON        CLOUDY    30  23  74 CALM      30.29S
DODGE CENTER   CLOUDY    27  23  86 CALM      30.28S
WINONA         CLOUDY    32  25  74 CALM      30.33R
AUSTIN         CLOUDY    28  19  69 W8        30.29S WCI  20
PRESTON        CLOUDY    28  22  76 W6        30.29S WCI  22
$$
ABBREVIATIONS USED IN REMARKS
   TC - TEMPERATURES IN CELSIUS
  WCI - WIND CHILL INDEX
   HX - HEAT INDEX
  VSB - VISIBILITY
$$




USA.gov is the U.S. government's official web portal to all federal, state and local government web resources and services.